Simultaneous Nadir Overpasses (SNOs) Predictions

Prediction of SNOs between FY3D and METOP-C Satellite Orbit:

Table of predicted SNOs for the next 14.0 days since TLE Epoch: 12/2/2024
Index Date (FY3D) Time (FY3D) Lat,Lon (FY3D) SZA (FY3D ) Date (METOP-C) Time (METOP-C) Lat,Lon (METOP-C) SZA (METOP-C ) Distance(km) Time Diff (sec)
1 12/15/2024 04:47:46 76.88, 107.73 100.09 12/15/2024 04:48:51 76.82, 111.15 100.08 86.87 65
2 12/15/2024 05:38:27 -76.75, -84.42 80.04 12/15/2024 05:39:35 -76.73, -81.90 80.03 64.52 68
3 12/15/2024 06:29:08 76.53, 83.76 99.76 12/15/2024 06:30:20 76.49, 84.54 99.73 20.66 72
4 12/15/2024 07:19:50 -76.44,-108.59 80.33 12/15/2024 07:21:04 -76.39,-108.48 80.38 6.05 74
5 12/15/2024 08:10:35 76.40, 58.90 99.63 12/15/2024 08:11:44 76.38, 58.80 99.62 3.15 69
6 12/15/2024 09:01:19 -76.40,-133.79 80.37 12/15/2024 09:02:25 -76.42,-133.73 80.35 2.80 66
7 12/15/2024 09:52:05 76.40, 33.53 99.63 12/15/2024 09:53:05 76.41, 33.55 99.65 1.27 60
8 12/15/2024 10:42:49 -76.40,-159.17 80.37 12/15/2024 10:43:47 -76.40,-159.14 80.36 0.65 58
9 12/15/2024 11:33:35 76.40, 8.15 99.64 12/15/2024 11:34:27 76.39, 8.14 99.63 1.23 52
10 12/15/2024 12:24:19 -76.40, 175.46 80.36 12/15/2024 12:25:09 -76.38, 175.45 80.38 2.21 50
11 12/15/2024 13:15:05 76.40, -17.22 99.64 12/15/2024 13:15:48 76.41, -17.10 99.66 3.49 43
12 12/15/2024 14:05:49 -76.40, 150.08 80.36 12/15/2024 14:06:30 -76.40, 150.20 80.35 3.08 41
13 12/15/2024 14:56:35 76.40, -42.60 99.64 12/15/2024 14:57:10 76.39, -42.52 99.64 2.25 35
14 12/15/2024 15:47:19 -76.40, 124.71 80.36 12/15/2024 15:47:52 -76.39, 124.79 80.37 2.63 33
15 12/15/2024 16:38:05 76.40, -67.97 99.65 12/15/2024 16:38:32 76.37, -67.93 99.62 3.15 27
16 12/15/2024 17:28:48 -76.36, 99.50 80.40 12/15/2024 17:29:14 -76.37, 99.38 80.39 3.45 26
17 12/15/2024 18:19:34 76.35, -93.18 99.61 12/15/2024 18:19:54 76.35, -93.34 99.61 4.18 20
18 12/15/2024 19:10:18 -76.36, 74.13 80.39 12/15/2024 19:10:35 -76.39, 74.13 80.36 3.82 17
19 12/15/2024 20:01:04 76.35,-118.55 99.61 12/15/2024 20:01:15 76.38,-118.59 99.64 2.69 11
20 12/15/2024 20:51:48 -76.36, 48.75 80.39 12/15/2024 20:51:57 -76.37, 48.72 80.37 1.82 9
21 12/15/2024 21:42:34 76.35,-143.93 99.62 12/15/2024 21:42:37 76.36,-144.00 99.62 1.82 3
22 12/15/2024 22:33:18 -76.36, 23.38 80.39 12/15/2024 22:33:19 -76.35, 23.31 80.39 2.00 1
23 12/15/2024 23:24:04 76.36,-169.30 99.62 12/15/2024 23:23:59 76.34,-169.41 99.60 3.38 5
24 12/16/2024 00:14:48 -76.36, -2.00 80.38 12/16/2024 00:14:40 -76.38, -1.94 80.36 2.53 8
25 12/16/2024 01:05:34 76.36, 165.32 99.62 12/16/2024 01:05:20 76.36, 165.34 99.63 1.00 14
26 12/16/2024 01:56:18 -76.36, -27.37 80.38 12/16/2024 01:56:02 -76.36, -27.35 80.38 0.52 16
27 12/16/2024 02:47:04 76.36, 139.94 99.63 12/16/2024 02:46:42 76.34, 139.93 99.61 1.51 22



Historial Predications of SNOs between FY3D and METOP-C
